Malaysia Virtual Airlines Airport Information Service

Kennedy International

ICAO: KJFK Country: USA
Latitude: 40.6398 Longitude: -73.7787
Latest Arrival : MH9551 (KBOS-KJFK) Latest Departure : MH9540 (KJFK-KBOS)


WX CaptureLIVE
Data provided by noaa.gov | Fetched at 04:53:02

METAR : KJFK 290351Z 27005KT 10SM SCT070 BKN095 OVC190 04/M01 A2983 RMK AO2 SLP101 T00441006

TAF : KJFK 290234Z 2903/3006 27006KT P6SM BKN050 FM290500 29010KT P6SM SCT040 BKN200 FM291400 32013G19KT P6SM FEW040 SCT200 FM291800 32016G24KT P6SM SCT050 FM300300 31012G20KT P6SM SCT250


Runway Data for KJFK
Data provided by openaviationdata.com

Runway ID Mag Var Hdg Length Elevation Surface ILS Freq ILS Id ILS Slope
04L -14 44° 11353 ft 13 ft Asphalt 110.9 IHIQ 3
04R -14 44° 8401 ft 13 ft Asphalt 109.5 IJFK 3
13L -14 134° 9992 ft 13 ft Asphalt 111.5 ITLK 3
13R -14 134° 14564 ft 13 ft Asphalt -- -- --
22L -14 224° 8401 ft 13 ft Asphalt 110.9 IIWY 3
22R -14 224° 11353 ft 13 ft Asphalt 109.5 IJOC 3
31L -14 314° 14564 ft 13 ft Asphalt 111.35 IMOH 3
31R -14 314° 9992 ft 13 ft Asphalt 111.5 IRTH 3

Kennedy International, USA
Use only for reference purposes



Not for navigational purposes.